FW6620 Weather Reports


Display with metric or nautical units.
time (UTC)temp
F
wind
direction
speed
MPH
gust
MPH
rain 1hr
in
rain 24hr
in
rain mn
in
humidity
%
barometer
mb
20260905072043 81 62 0.0 6.0 0.00 0.00 0.00 84 1014.3
20260905071558 81 60 0.0 2.0 0.00 0.00 0.00 84 1014.4
20260905071047 81 0 0.0 2.0 0.00 0.00 0.00 83 1014.5
20260905070546 81 0 0.0 2.0 0.00 0.00 0.00 83 1014.4
20260905070058 81 0 0.0 2.0 0.00 0.00 0.00 83 1014.5
20260905065549 81 0 0.0 6.0 0.00 0.00 0.00 83 1014.3
20260905065047 82 0 0.0 6.0 0.00 0.00 0.00 82 1014.3
20260905064559 82 0 0.0 4.0 0.00 0.00 0.00 82 1014.3
20260905064046 82 0 0.0 2.0 0.00 0.00 0.00 82 1014.3
20260905063547 82 0 0.0 2.0 0.00 0.00 0.00 82 1014.4
20260905063103 82 0 0.0 3.0 0.00 0.00 0.00 81 1014.5
20260905062546 82 0 0.0 3.0 0.00 0.00 0.00 81 1014.4
20260905062046 82 0 0.0 3.0 0.00 0.00 0.00 81 1014.5
20260905061604 82 0 0.0 6.0 0.00 0.00 0.00 81 1014.5
20260905061047 82 65 0.0 6.0 0.00 0.00 0.00 80 1014.5
20260905060547 82 0 0.0 4.0 0.00 0.00 0.00 80 1014.5
20260905060107 82 61 0.0 3.0 0.00 0.00 0.00 80 1014.4
20260905055548 82 0 0.0 6.0 0.00 0.00 0.00 79 1014.5
20260905055046 83 0 0.0 6.0 0.00 0.00 0.00 79 1014.4
20260905054604 83 65 0.0 3.0 0.00 0.00 0.00 79 1014.4
20260905054048 83 0 0.0 3.0 0.00 0.00 0.00 79 1014.5
20260905053549 83 0 0.0 4.0 0.00 0.00 0.00 78 1014.5
20260905053058 83 0 0.0 4.0 0.00 0.00 0.00 78 1014.5
20260905052546 83 0 0.0 3.0 0.00 0.00 0.00 78 1014.5
20260905052047 83 0 0.0 3.0 0.00 0.00 0.00 77 1014.6
20260905051609 83 64 0.0 3.0 0.00 0.00 0.00 77 1014.5
20260905051049 83 0 0.0 3.0 0.00 0.00 0.00 77 1014.6
20260905050547 83 0 0.0 6.0 0.00 0.00 0.00 77 1014.5
20260905050105 83 0 0.0 6.0 0.00 0.00 0.00 77 1014.5
20260905045546 83 56 0.0 1.0 0.00 0.00 0.00 76 1014.4
20260905045047 83 0 0.0 3.0 0.00 0.00 0.00 76 1014.5
20260905044556 84 0 0.0 3.0 0.00 0.00 0.00 76 1014.4
20260905044048 84 0 0.0 3.0 0.00 0.00 0.00 75 1014.4
20260905043601 84 0 0.0 3.0 0.00 0.00 0.00 75 1014.4
20260905043049 84 0 0.0 3.0 0.00 0.00 0.00 75 1014.4
20260905042551 84 0 0.0 3.0 0.00 0.00 0.00 75 1014.6
20260905042048 84 91 0.0 3.0 0.00 0.00 0.00 74 1014.5
20260905041608 84 0 0.0 3.0 0.00 0.00 0.00 74 1014.4
20260905041046 84 132 0.0 3.0 0.00 0.00 0.00 74 1014.4
20260905040546 84 94 0.0 4.0 0.00 0.00 0.00 74 1014.4
20260905040108 84 0 0.0 4.0 0.00 0.00 0.00 73 1014.4
20260905035547 84 0 0.0 4.0 0.00 0.00 0.00 73 1014.4
20260905035048 84 0 1.0 4.0 0.00 0.00 0.00 73 1014.4
20260905034550 85 0 0.0 7.0 0.00 0.00 0.00 73 1014.4
20260905034046 85 0 0.0 7.0 0.00 0.00 0.00 72 1014.4
20260905033547 85 76 0.0 6.0 0.00 0.00 0.00 72 1014.4
20260905033108 85 0 1.0 6.0 0.00 0.00 0.00 72 1014.3
20260905032546 85 0 0.0 2.0 0.00 0.00 0.00 71 1014.4
20260905032046 85 0 0.0 4.0 0.00 0.00 0.00 71 1014.4
20260905031604 85 0 0.0 4.0 0.00 0.00 0.00 71 1014.3
20260905031047 85 71 0.0 4.0 0.00 0.00 0.00 70 1014.2
20260905030546 85 0 0.0 3.0 0.00 0.00 0.00 70 1014.2
20260905025547 85 0 0.0 3.0 0.00 0.00 0.00 69 1014.1
20260905025046 85 66 0.0 2.0 0.00 0.00 0.00 69 1014.0
20260905024604 85 0 0.0 3.0 0.00 0.00 0.00 69 1014.0
20260905024051 86 0 0.0 3.0 0.00 0.00 0.00 69 1014.0
20260905023547 86 0 0.0 2.0 0.00 0.00 0.00 68 1013.9
20260905023102 86 0 0.0 2.0 0.00 0.00 0.00 69 1013.9
20260905022548 86 0 0.0 2.0 0.00 0.00 0.00 69 1013.8
20260905022046 86 0 0.0 2.0 0.00 0.00 0.00 69 1013.7
20260905021608 86 0 0.0 3.0 0.00 0.00 0.00 69 1013.7
20260905021046 86 0 0.0 3.0 0.00 0.00 0.00 69 1013.6
20260905020546 86 0 0.0 3.0 0.00 0.00 0.00 68 1013.5
20260905020056 86 0 0.0 1.0 0.00 0.00 0.00 69 1013.5
20260905015549 86 0 0.0 1.0 0.00 0.00 0.00 69 1013.5
20260905015046 86 0 0.0 0.0 0.00 0.00 0.00 69 1013.5
20260905014553 87 0 0.0 4.0 0.00 0.00 0.00 69 1013.5
20260905014046 87 0 0.0 4.0 0.00 0.00 0.00 69 1013.4
20260905013546 87 66 0.0 5.0 0.00 0.00 0.00 69 1013.4
20260905013120 87 0 0.0 5.0 0.00 0.00 0.00 68 1013.4
20260905012547 87 0 1.0 5.0 0.00 0.00 0.00 68 1013.3
20260905012046 87 58 0.0 0.0 0.00 0.00 0.00 68 1013.3
20260905011610 87 0 0.0 4.0 0.00 0.00 0.00 68 1013.2
20260905011046 87 0 0.0 4.0 0.00 0.00 0.00 68 1013.3
20260905010550 87 69 0.0 4.0 0.00 0.00 0.00 67 1013.1
20260905010100 88 58 0.0 4.0 0.00 0.00 0.00 67 1013.0
20260905005546 88 58 0.0 3.0 0.00 0.00 0.00 67 1013.0
20260905005046 88 0 0.0 3.0 0.00 0.00 0.00 67 1013.0
20260905004607 88 0 0.0 3.0 0.00 0.00 0.00 66 1012.9
20260905004047 88 65 0.0 4.0 0.00 0.00 0.00 66 1013.0
20260905003547 88 0 1.0 4.0 0.00 0.00 0.00 65 1012.9
20260905003102 89 65 0.0 2.0 0.00 0.00 0.00 64 1012.7
20260905002546 89 65 0.0 2.0 0.00 0.00 0.00 63 1012.7
20260905002047 89 0 0.0 3.0 0.00 0.00 0.00 63 1012.6
20260905001607 89 0 0.0 3.0 0.00 0.00 0.00 63 1012.7
20260905001046 89 64 0.0 3.0 0.00 0.00 0.00 63 1012.6
20260905000547 89 162 1.0 6.0 0.00 0.00 0.00 63 1012.6
20260905000109 89 0 1.0 6.0 0.00 0.00 0.00 62 1012.5
20260904235551 89 71 0.0 4.0 0.00 0.00 0.00 62 1012.4
20260904235046 89 96 0.0 4.0 0.00 0.00 0.00 62 1012.4
20260904234607 90 81 0.0 3.0 0.00 0.00 0.00 62 1012.4
20260904234050 90 68 0.0 2.0 0.00 0.00 0.00 62 1012.4
20260904233549 90 0 1.0 4.0 0.00 0.00 0.00 61 1012.4
20260904233100 91 0 0.0 4.0 0.00 0.00 0.00 61 1012.5
20260904232547 91 0 0.0 4.0 0.00 0.00 0.00 60 1012.4
20260904232045 91 70 0.0 3.0 0.00 0.00 0.00 60 1012.3
20260904231600 91 0 0.0 3.0 0.00 0.00 0.00 60 1012.4
20260904231046 92 75 0.0 3.0 0.00 0.00 0.00 60 1012.3
20260904230551 92 0 0.0 7.0 0.00 0.00 0.00 60 1012.4
20260904230109 92 67 1.0 7.0 0.00 0.00 0.00 59 1012.4
20260904225547 93 70 0.0 3.0 0.00 0.00 0.00 58 1012.4
20260904225046 93 70 0.0 3.0 0.00 0.00 0.00 56 1012.4
20260904224615 93 69 0.0 6.0 0.00 0.00 0.00 56 1012.3
20260904224049 93 0 0.0 6.0 0.00 0.00 0.00 55 1012.4
20260904223546 93 54 1.0 6.0 0.00 0.00 0.00 55 1012.4
20260904223111 93 0 0.0 6.0 0.00 0.00 0.00 55 1012.6
20260904222545 93 0 0.0 6.0 0.00 0.00 0.00 54 1012.6
20260904222046 94 65 1.0 7.0 0.00 0.00 0.00 53 1012.6
20260904221625 94 60 0.0 7.0 0.00 0.00 0.00 55 1012.5
20260904221100 93 54 0.0 3.0 0.00 0.00 0.00 54 1012.5
20260904220547 93 0 0.0 3.0 0.00 0.00 0.00 54 1012.5
20260904220057 93 0 0.0 2.0 0.00 0.00 0.00 53 1012.5
20260904215550 93 0 0.0 4.0 0.00 0.00 0.00 54 1012.6
20260904215046 93 72 1.0 4.0 0.00 0.00 0.00 53 1012.7
20260904214607 93 0 0.0 4.0 0.00 0.00 0.00 53 1012.8
20260904214046 92 0 0.0 4.0 0.00 0.00 0.00 54 1012.8
20260904213546 92 58 1.0 3.0 0.00 0.00 0.00 58 1012.9
20260904213102 92 77 0.0 3.0 0.00 0.00 0.00 61 1013.0
20260904212547 92 0 0.0 2.0 0.00 0.00 0.00 64 1013.0
20260904212047 92 0 0.0 4.0 0.00 0.00 0.00 63 1013.1
20260904211559 91 0 1.0 4.0 0.00 0.00 0.00 63 1013.1
20260904211046 91 0 1.0 4.0 0.00 0.00 0.00 66 1013.2
20260904210546 91 0 1.0 4.0 0.00 0.00 0.00 66 1013.3
20260904205547 90 0 0.0 4.0 0.00 0.00 0.00 68 1013.4
20260904205046 89 72 0.0 4.0 0.00 0.00 0.00 70 1013.5
20260904204609 89 72 0.0 3.0 0.00 0.00 0.00 70 1013.5
20260904204046 88 0 0.0 4.0 0.00 0.00 0.00 70 1013.6
20260904203549 88 0 1.0 4.0 0.00 0.00 0.00 71 1013.6
20260904203102 88 0 0.0 3.0 0.00 0.00 0.00 72 1013.8
20260904202546 88 0 0.0 3.0 0.00 0.00 0.00 71 1013.8
20260904202045 88 0 0.0 2.0 0.00 0.00 0.00 71 1013.9
20260904201628 87 0 0.0 2.0 0.00 0.00 0.00 72 1014.0
20260904201046 87 0 0.0 3.0 0.00 0.00 0.00 73 1014.1
20260904200546 87 0 0.0 3.0 0.00 0.00 0.00 73 1014.1
20260904200121 87 0 0.0 2.0 0.00 0.00 0.00 73 1014.1
20260904195546 87 0 0.0 2.0 0.00 0.00 0.00 74 1014.1
20260904195047 87 0 0.0 3.0 0.00 0.00 0.00 74 1014.2
20260904194606 87 60 0.0 3.0 0.00 0.00 0.00 74 1014.2
20260904194046 87 0 0.0 2.0 0.00 0.00 0.00 75 1014.2
20260904193546 87 0 0.0 2.0 0.00 0.00 0.00 75 1014.2
20260904193101 87 60 0.0 4.0 0.00 0.00 0.00 76 1014.3
20260904192546 86 0 0.0 4.0 0.00 0.00 0.00 76 1014.4
20260904192047 86 60 1.0 4.0 0.00 0.00 0.00 75 1014.3
20260904191600 86 0 0.0 2.0 0.00 0.00 0.00 76 1014.5
20260904191046 86 0 0.0 2.0 0.00 0.00 0.00 76 1014.6
20260904190546 86 0 0.0 3.0 0.00 0.00 0.00 77 1014.7
20260904190059 86 0 0.0 4.0 0.00 0.00 0.00 76 1014.8
20260904185548 86 0 0.0 4.0 0.00 0.00 0.00 77 1014.9
20260904185050 86 61 0.0 3.0 0.00 0.00 0.00 77 1014.9
20260904184607 86 61 0.0 3.0 0.00 0.00 0.00 78 1015.0
20260904184046 85 61 0.0 3.0 0.00 0.00 0.00 78 1015.1
20260904183546 85 0 0.0 3.0 0.00 0.00 0.00 78 1015.2
20260904183102 85 60 1.0 3.0 0.00 0.00 0.00 77 1015.3
20260904182545 85 0 0.0 3.0 0.00 0.00 0.00 78 1015.3
20260904182045 85 0 0.0 3.0 0.00 0.00 0.00 78 1015.5
20260904181557 85 0 0.0 3.0 0.00 0.00 0.00 78 1015.4
20260904181046 85 60 0.0 3.0 0.00 0.00 0.00 78 1015.4
20260904180546 85 0 1.0 3.0 0.00 0.00 0.00 78 1015.5
20260904180059 85 60 0.0 3.0 0.00 0.00 0.00 79 1015.4
20260904175547 85 0 0.0 2.0 0.00 0.00 0.00 79 1015.3
20260904175048 85 60 0.0 4.0 0.00 0.00 0.00 78 1015.4
20260904174557 85 60 0.0 4.0 0.00 0.00 0.00 77 1015.6
20260904174046 85 60 1.0 4.0 0.00 0.00 0.00 77 1015.7
20260904173547 85 60 0.0 3.0 0.00 0.00 0.00 78 1015.6
20260904173104 85 0 0.0 2.0 0.00 0.00 0.00 79 1015.6
20260904172547 85 60 0.0 3.0 0.00 0.00 0.00 79 1015.8
20260904172047 85 0 0.0 3.0 0.00 0.00 0.00 78 1015.7
20260904171619 85 60 0.0 3.0 0.00 0.00 0.00 78 1015.8
20260904171046 85 0 0.0 3.0 0.00 0.00 0.00 78 1015.9
20260904170546 85 0 0.0 3.0 0.00 0.00 0.00 79 1015.8
20260904170059 84 0 0.0 3.0 0.00 0.00 0.00 79 1015.8
20260904165546 84 0 0.0 3.0 0.00 0.00 0.00 79 1015.8
20260904165046 84 0 0.0 3.0 0.00 0.00 0.00 80 1015.7
20260904164607 84 0 0.0 3.0 0.00 0.00 0.00 80 1015.7
20260904164047 84 0 1.0 4.0 0.00 0.00 0.00 80 1015.7
20260904163546 84 0 0.0 4.0 0.00 0.00 0.00 81 1015.7
20260904163101 84 0 0.0 4.0 0.00 0.00 0.00 81 1015.7
20260904162546 84 0 0.0 4.0 0.00 0.00 0.00 82 1015.6
20260904162045 83 63 2.0 4.0 0.00 0.00 0.00 81 1015.7
20260904161611 83 0 0.0 2.0 0.00 0.00 0.00 82 1015.6
20260904161046 83 0 0.0 2.0 0.00 0.00 0.00 83 1015.6
20260904160546 83 0 0.0 3.0 0.00 0.00 0.00 83 1015.5
20260904160107 83 0 0.0 4.0 0.00 0.00 0.00 84 1015.4
20260904155550 82 62 1.0 6.0 0.00 0.00 0.00 84 1015.4
20260904155049 82 53 0.0 6.0 0.00 0.00 0.00 85 1015.4
20260904154608 82 0 0.0 2.0 0.00 0.00 0.00 86 1015.4
20260904154049 82 0 0.0 2.0 0.00 0.00 0.00 86 1015.4
20260904153546 82 0 0.0 3.0 0.00 0.00 0.00 87 1015.4
20260904153115 81 0 0.0 3.0 0.00 0.00 0.00 86 1015.4
20260904152546 81 0 0.0 2.0 0.00 0.00 0.00 87 1015.4
20260904152045 81 0 0.0 3.0 0.00 0.00 0.00 87 1015.3
20260904151558 81 0 0.0 3.0 0.00 0.00 0.00 87 1015.3
20260904151046 81 0 0.0 2.0 0.00 0.00 0.00 87 1015.3
20260904150546 81 63 0.0 2.0 0.00 0.00 0.00 88 1015.4
20260904150104 81 0 0.0 2.0 0.00 0.00 0.00 88 1015.3
20260904145546 81 0 0.0 2.0 0.00 0.00 0.00 88 1015.3
20260904145046 81 0 0.0 2.0 0.00 0.00 0.00 88 1015.3
20260904144614 81 0 0.0 3.0 0.00 0.00 0.00 88 1015.3
20260904144046 81 0 0.0 3.0 0.00 0.00 0.00 87 1015.3
20260904143546 81 0 0.0 2.0 0.00 0.00 0.00 87 1015.3
20260904143121 81 0 0.0 1.0 0.00 0.00 0.00 87 1015.3
20260904142546 81 0 0.0 1.0 0.00 0.00 0.00 87 1015.3
20260904142045 81 0 0.0 1.0 0.00 0.00 0.00 87 1015.4
20260904141604 81 0 0.0 2.0 0.00 0.00 0.00 87 1015.3
20260904141045 81 0 0.0 2.0 0.00 0.00 0.00 87 1015.4
20260904140550 81 0 0.0 2.0 0.00 0.00 0.00 87 1015.3
20260904140106 81 0 0.0 1.0 0.00 0.00 0.00 88 1015.4
20260904135546 81 0 0.0 2.0 0.00 0.00 0.00 88 1015.4
20260904135046 81 0 0.0 2.0 0.00 0.00 0.00 88 1015.3
20260904134604 81 0 0.0 1.0 0.00 0.00 0.00 88 1015.3
20260904134046 81 0 0.0 1.0 0.00 0.00 0.00 88 1015.3
20260904133546 81 0 0.0 1.0 0.00 0.00 0.00 88 1015.3
20260904133112 81 0 0.0 2.0 0.00 0.00 0.00 88 1015.2
20260904132547 81 0 0.0 2.0 0.00 0.00 0.00 88 1015.1
20260904132047 81 0 0.0 2.0 0.00 0.00 0.00 88 1015.1
20260904131555 80 0 0.0 2.0 0.00 0.00 0.00 88 1015.1
20260904131050 80 0 0.0 2.0 0.00 0.00 0.00 88 1015.1
20260904130549 80 0 0.0 2.0 0.00 0.00 0.00 88 1015.2
20260904130106 80 0 0.0 2.0 0.00 0.00 0.00 88 1015.1
20260904125546 80 0 0.0 2.0 0.00 0.00 0.00 88 1015.1
20260904125049 80 63 0.0 2.0 0.00 0.00 0.00 88 1014.9
20260904124555 80 0 0.0 3.0 0.00 0.00 0.00 88 1014.9
20260904124046 80 0 0.0 3.0 0.00 0.00 0.00 88 1014.9
20260904123546 80 0 0.0 3.0 0.00 0.00 0.00 88 1014.7
20260904123106 80 64 0.0 3.0 0.00 0.00 0.00 88 1014.6
20260904122546 80 0 0.0 2.0 0.00 0.00 0.00 88 1014.6
20260904122046 80 0 0.0 2.0 0.00 0.00 0.00 88 1014.5
20260904121600 80 0 0.0 3.0 0.00 0.00 0.00 88 1014.5
20260904121045 80 0 0.0 4.0 0.00 0.00 0.00 88 1014.4
20260904120545 80 0 0.0 4.0 0.00 0.00 0.00 88 1014.3
20260904120107 80 0 0.0 4.0 0.00 0.00 0.00 88 1014.2
20260904115545 80 0 0.0 3.0 0.00 0.00 0.00 88 1014.2
20260904115045 81 0 1.0 3.0 0.00 0.00 0.00 88 1014.2
20260904114557 81 69 0.0 4.0 0.00 0.00 0.00 87 1014.1
20260904114045 81 0 0.0 4.0 0.00 0.00 0.00 87 1014.1
20260904113547 81 71 0.0 4.0 0.00 0.00 0.00 87 1014.1
20260904113057 81 73 0.0 4.0 0.00 0.00 0.00 87 1014.0
20260904112546 81 64 0.0 4.0 0.00 0.00 0.00 87 1014.1
20260904112050 81 0 0.0 4.0 0.00 0.00 0.00 87 1014.0
20260904111601 81 0 0.0 4.0 0.00 0.00 0.00 87 1013.9
20260904111047 81 0 0.0 3.0 0.00 0.00 0.00 87 1013.9
20260904110546 81 0 0.0 4.0 0.00 0.00 0.00 87 1013.9
20260904110104 81 0 0.0 4.0 0.00 0.00 0.00 87 1014.0
20260904105545 81 76 1.0 4.0 0.00 0.00 0.00 87 1013.8
20260904105045 81 0 0.0 4.0 0.00 0.00 0.00 87 1013.8
20260904104557 81 55 1.0 4.0 0.00 0.00 0.00 87 1013.7
20260904104046 81 0 0.0 2.0 0.00 0.00 0.00 87 1013.7
20260904103550 81 0 0.0 2.0 0.00 0.00 0.00 87 1013.8
20260904103105 81 0 0.0 2.0 0.00 0.00 0.00 87 1013.8
20260904102546 81 0 0.0 4.0 0.00 0.00 0.00 87 1013.7
20260904102046 81 0 0.0 6.0 0.00 0.00 0.00 87 1013.7
20260904101603 81 67 1.0 6.0 0.00 0.00 0.00 87 1013.6
20260904101046 81 52 0.0 4.0 0.00 0.00 0.00 87 1013.6
20260904100549 81 0 0.0 4.0 0.00 0.00 0.00 87 1013.6
20260904100057 81 0 0.0 6.0 0.00 0.00 0.00 87 1013.6
20260904095547 81 0 0.0 6.0 0.00 0.00 0.00 86 1013.6
20260904095047 81 0 0.0 2.0 0.00 0.00 0.00 86 1013.6
20260904094559 81 64 0.0 4.0 0.00 0.00 0.00 86 1013.5
20260904094046 81 0 0.0 4.0 0.00 0.00 0.00 86 1013.5
20260904093549 81 64 0.0 3.0 0.00 0.00 0.00 86 1013.5
20260904093105 81 66 0.0 2.0 0.00 0.00 0.00 86 1013.5
20260904092545 81 68 0.0 2.0 0.00 0.00 0.00 86 1013.4
20260904092047 81 0 0.0 3.0 0.00 0.00 0.00 86 1013.5
20260904091559 81 0 0.0 3.0 0.00 0.00 0.00 86 1013.5
20260904091045 81 68 0.0 3.0 0.00 0.00 0.00 86 1013.4
20260904090545 81 85 0.0 3.0 0.00 0.00 0.00 86 1013.4
20260904090058 81 67 0.0 2.0 0.00 0.00 0.00 86 1013.4
20260904085545 81 0 0.0 2.0 0.00 0.00 0.00 86 1013.4
20260904085045 81 0 0.0 3.0 0.00 0.00 0.00 86 1013.4
20260904084559 81 67 0.0 6.0 0.00 0.00 0.00 86 1013.5
20260904084047 81 66 0.0 6.0 0.00 0.00 0.00 86 1013.4
20260904083549 81 54 1.0 6.0 0.00 0.00 0.00 85 1013.4
20260904083104 81 0 0.0 5.0 0.00 0.00 0.00 86 1013.5
20260904082546 81 0 0.0 5.0 0.00 0.00 0.00 85 1013.5
20260904082046 81 0 0.0 3.0 0.00 0.00 0.00 85 1013.4
20260904081559 81 87 1.0 3.0 0.00 0.00 0.00 85 1013.5
20260904081045 81 0 0.0 4.0 0.00 0.00 0.00 85 1013.5
20260904080547 81 0 0.0 7.0 0.00 0.00 0.00 85 1013.4
20260904080116 81 61 0.0 7.0 0.00 0.00 0.00 85 1013.5
20260904075546 81 0 1.0 7.0 0.00 0.00 0.00 85 1013.5
20260904075046 81 0 1.0 6.0 0.00 0.00 0.00 85 1013.4
20260904074553 81 0 0.0 9.0 0.00 0.00 0.00 85 1013.5
20260904074050 81 0 1.0 9.0 0.00 0.00 0.00 84 1013.6
20260904073546 81 0 1.0 4.0 0.00 0.00 0.00 84 1013.7
20260904073111 82 0 0.0 4.0 0.00 0.00 0.00 84 1013.7
20260904072545 81 0 0.0 4.0 0.00 0.00 0.00 84 1013.7